Terminal Aerodrome Forecast
Issued by NWS

Home | Current Version | Previous Version | Text Only | Print | Product List | Glossary On
Versions: 1 2 3 4 5 6 7 8 9 10 11 12 13 14 15 16 17 18 19 20 21
000
FTAK31 PAJN 182300
TAFAYA
TAF
PAYA 182322Z 1900/1924 08008KT P6SM -RA SCT025 OVC040
     FM190300 09010KT P6SM -RA OVC030
     FM190600 09009KT P6SM VCSH BKN035 BKN080
     FM191000 09009KT P6SM -RA OVC030
     FM191500 10011KT 5SM -RA BR OVC015
     FM191800 20012G20KT 5SM -RA BR OVC025
     FM192100 18010KT P6SM -SHRA OVC030
      AMD LTD TO CLD VIS AND WIND 1901/1910=

USA.gov is the U.S. government's official web portal to all federal, state and local government web resources and services.